Location: Chatou
(48.8898°N, 2.1586°E)
Time: 17:47:56
(UTC+00:00)

Cosmos 1328 - Pass Details

Date: 03 February 2023
Orbit: 519 x 543 km, 82.5° (Epoch: 29 March)

Event Time Altitude Azimuth Distance (km) Brightness Sun altitude
Rises 17:46:04 0° 187° (S) 2,699 7.7 -9.2°
Reaches altitude 10° 17:48:13 10° 188° (S) 1,808 6.7 -9.6°
Maximum altitude 17:52:12 88° 99° (E) 549 3.8 -10.2°
Drops below altitude 10° 17:56:11 10° 10° (N) 1,808 6.2 -10.9°
Sets 17:58:21 0° 10° (N) 2,700 7.1 -11.2°
